Flag for Canada Weather past 2 weeks in Saguenay, Quebec, Canada

Now
52 °F

Cool.


Feels Like: 48 °F
Forecast: 39 / 51 °F
Wind: 12 mph from Southwest

Location: Jonquiere Airport

Current Time: Sep 17, 2014 at 12:18:01 AM

Latest Report: Sep 16, 2014 at 11:00 PM


Visibility: N/A

Pressure: 29.80 "Hg

Humidity: 72%

Dew point: 43 °F

Location of SaguenayLocation

Historic Weather in Saguenay — Graph

°F

Saguenay temperature yesterday

Maximum temperature yesterday: 59 °F (at 5:00 PM)
Minimum temperature yesterday: 48 °F (at 6:00 AM)
Average temperature yesterday: 52 °F

Past Weeks' High & Low Weather Summary

 TemperatureHumidityPressure
High78 °F (Sep 5, 3:00 PM)100% (Sep 13, 4:00 AM)30.42 "Hg (Sep 13, 4:00 AM)
Low33 °F (Sep 13, 4:00 AM)35% (Sep 7, 3:00 PM)29.38 "Hg (Sep 11, 3:00 PM)
Average56 °F78%30.01 "Hg
* Reported Sep 1 11:00 PM — Sep 16 11:00 PM, Saguenay, Weather by CustomWeather, © 2014

Note: Actual official high and low records may vary slightly from our data, if they occured in-between our weather recording intervals... More about our weather records

Advertising

Saguenay weather history for previous 24 hours

 ConditionsComfort  
Time TempWeatherWind HumidityBarometerVisibility
11:00 PM
Sep 16
52 °FCool.12 mph72%29.80 "HgN/A
10:00 PM50 °FCool.9 mph76%29.81 "HgN/A
9:00 PM49 °FCool.13 mph77%29.82 "HgN/A
8:00 PM50 °FCool.10 mph78%29.83 "HgN/A
7:00 PM51 °FCool.9 mph78%29.83 "HgN/A
6:00 PM52 °FCool.10 mph74%29.84 "HgN/A
5:00 PM59 °FRefreshingly cool.2 mph54%29.82 "HgN/A
4:00 PM56 °FCool.5 mph62%29.84 "HgN/A
3:00 PM58 °FRefreshingly cool.7 mph55%29.85 "HgN/A
2:00 PM57 °FRefreshingly cool.7 mph59%29.87 "HgN/A
1:00 PM58 °FRefreshingly cool.9 mph56%29.88 "HgN/A
12:00 PM58 °FCool.10 mph61%29.90 "HgN/A
11:00 AM57 °FCool.7 mph66%29.93 "HgN/A
10:00 AM54 °FCool.9 mph75%29.94 "HgN/A
9:00 AM51 °FCool.7 mph79%29.95 "HgN/A
8:00 AM50 °FCool.6 mph85%29.95 "HgN/A
7:00 AM49 °FCool.5 mph88%29.96 "HgN/A
6:00 AM48 °FCool.6 mph89%29.93 "HgN/A
5:00 AM48 °FCool.8 mph89%29.93 "HgN/A
4:00 AM49 °FCool.7 mph90%29.92 "HgN/A
3:00 AM50 °FCool.5 mph90%29.93 "HgN/A
2:00 AM49 °FCool.5 mph95%29.93 "HgN/A
1:00 AM49 °FCool.2 mph95%29.93 "HgN/A
12:00 AM49 °FCool.6 mph94%29.93 "HgN/A
Weather by CustomWeather, © 2014

See weather overviewHow to use our weather pages